SCP
0 0 0 0 -0 -0 -0 0 0 0 0 0 0 0 0 0 0 0 0 0 0 0 0 0 0 0 0 0 0 0 0 0 0 0 0 0 0 0 0 0 0 0 0 0
0 0 0 0 -0 -0 -0 0 0 0 0 0 0 0 0 0 0 0 0 0 0 0 0 0 0 0 0 0 0 0 0 0 0 0 0 0 0 0 0 0 0 0 0 -0
0 0 0 0 0 -0 -0 0 0 0 0 0 0 0 0 0 0 0 0 0 0 0 0 0 0 0 0 0 0 0 0 0 0 0 0 0 0 0 0 0 0 0 0 0
0 0 0 0 0 0 0 0 0 0 0 0 0 0 0 0 0 0 0 0 0 0 0 0 0 0 0 0 0 0 0 0 0 0 0 0 0 0 0 -0 0 0 0 0
0 0 0 0 0 0 0 0 0 0 0 0 0 0 0 0 0 0 0 0 0 0 0 0 0 0 0 0 0 0 0 0 0 0 0 0 0 -0 0 0 0 -0 -0 0
0 0 0 0 0 0 0 0 0 0 0 0 0 0 0 0 0 0 0 0 0 0 0 0 0 0 0 0 0 0 0 0 0 0 0 0 0 0 0 0 0 0 -0 0
0 0 0 0 0 0 0 0 0 0 0 0 0 0 0 0 0 0 0 0 0 0 0 0 0 0 0 0 0 0 0 0 0 0 0 0 0 -0 0 0 0 0 0 0
0 0 0 0 0 0 0 0 0 0 0 0 0 0 0 0 0 0 0 0 0 0 0 0 0 0 0 0 0 0 0 0 0 0 0 0 0 0 -0 -0 0 0 0 0
0 0 0 0 0 0 0 0 0 0 0 0 0 0 0 0 0 0 0 0 0 0 0 0 0 0 0 0 0 0 0 0 0 0 0 0 0 0 0 0 0 0 -0 -0
0 0 0 0 0 0 0 0 0 0 0 0 0 0 0 0 0 0 0 0 0 0 0 0 0 0 0 0 0 0 0 0 0 0 0 0 0 0 0 0 0 0 0 0
0 0 0 0 0 0 0 0 0 0 0 0 0 0 0 0 0 0 0 0 0 0 0 0 0 0 0 0 0 0 0 0 0 0 0 0 -0 0 -0 0 0 0 0 0
0 0 0 0 0 0 0 0 0 0 0 0 0 0 0 0 0 0 0 0 0 0 0 0 0 0 0 0 0 0 0 0 0 0 0 0 0 0 0 0 0 0 0 0
0 0 0 0 0 0 0 0 0 0 0 0 0 0 0 0 0 0 0 0 0 0 0 0 0 0 0 0 0 -0 0 0 0 0 0 -0 0 0 0 0 0 0 0 0
0 0 0 0 0 0 0 0 0 0 0 0 0 0 0 0 0 0 0 -0 0 0 0 0 0 0 0 0 0 -0 0 0 0 0 0 -0 0 0 0 0 0 0 0 0
0 0 0 0 0 0 0 0 0 0 0 0 0 0 0 0 -0 0 0 0 0 0 0 0 0 0 0 0 0 0 0 0 0 0 0 0 0 0 0 0 -0 0 -0 -0
0 0 0 0 0 0 0 0 0 0 0 0 0 0 0 0 0 0 0 0 0 0 0 0 0 0 0 0 0 0 0 0 0 0 0 0 0 0 0 -0 0 0 -0 0
0 0 0 0 0 0 0 0 0 0 0 0 0 0 0 -0 0 0 0 0 0 0 0 0 0 -0 0 0 0 0 0 0 0 0 0 0 0 0 0 0 0 0 0 0
0 0 0 0 0 0 0 0 0 0 0 0 0 0 0 -0 -0 -0 0 0 0 0 0 0 0 0 0 0 -0 0 -0 -0 0 0 0 0 0 0 0 0 0 0 0 0
0 0 0 0 0 0 0 0 0 0 0 0 0 0 0 0 -0 -0 0 0 0 0 0 0 0 0 0 0 0 -0 0 0 0 0 0 0 0 0 0 0 0 0 -0 0
0 0 0 0 0 0 0 0 0 0 0 0 0 0 0 0 0 -0 0 0 0 0 0 0 0 -0 0 -0 0 -0 -0 0 0 0 0 0 0 0 -0 0 0 0 0 0
0 0 0 0 0 0 0 0 0 0 0 0 0 0 0 0 0 0 0 0 0 -0 0 0 0 0 0 0 -0 0 -0 -0 0 0 0 0 0 0 0 0 0 0 0 0
0 0 0 0 0 0 0 0 0 0 0 0 0 0 0 0 0 0 0 0 0 -0 -0 0 -0 0 0 0 0 0 -0 -0 0 0 0 -0 0 0 0 0 0 0 0 0
0 0 0 0 0 0 0 0 0 0 -0 0 -0 -0 0 0 0 0 0 -0 -0 -0 -0 -0 0 0 0 0 -0 -0 -0 -0 -0 -0 -0 0 0 0 0 0 0 0 0 0
0 0 0 0 0 0 0 0 0 0 0 -0 0 -0 -0 0 0 -0 -0 0 -0 -0 -0 -0 0 0 -0 0 0 -0 0 -0 -0 -0 -0 -0 0 0 0 0 0 0 0 0
0 0 0 0 0 0 0 -0 -0 0 0 -0 -0 -0 -0 0 0 0 0 -0 0 -0 0 -0 0 0 -0 0 0 0 -0 -0 -0 -0 -0 -0 0 0 0 0 0 0 0 0
0 0 0 0 0 0 -0 0 0 -0 -0 0 0 0 -0 0 0 0 0 -0 0 0 -0 0 0 0 -0 0 0 0 -0 -0 0 -0 -0 -0 -0 -0 0 0 0 0 0 0
0 0 0 0 0 -0 -0 0 0 0 0 0 0 -0 0 0 0 0 0 0 -0 -0 -0 0 0 0 0 0 0 0 0 0 -0 -0 -0 -0 -0 0 -0 0 0 0 0 0
Wind_Speed_500mb
47 47 45 59 71 82 75 40 8 14 22 3 11 9 11 29 32 38 16 16 14 15 21 19 18 27 20 35 27 25 15 2 5 15 22 21 9 11 8 2 3 5 7 13
44 46 45 55 63 75 78 54 20 17 23 5 7 14 25 35 23 26 28 16 8 13 14 14 13 26 35 40 25 12 1 4 7 15 11 10 4 5 12 12 11 10 14 11
41 48 45 52 60 61 48 21 8 5 22 30 13 15 12 22 31 35 36 15 19 17 18 17 20 23 17 34 32 21 8 3 8 15 18 13 21 26 19 16 6 15 16 29
42 44 42 50 51 51 38 8 12 26 9 13 24 21 18 28 28 36 24 14 22 26 15 20 24 24 22 31 34 18 5 3 11 23 27 32 38 34 29 31 28 26 39 37
38 40 44 50 48 46 26 10 14 30 36 30 25 19 23 31 31 24 26 13 24 23 18 21 24 16 11 10 10 14 10 8 14 27 24 27 35 33 36 39 30 32 27 31
43 42 41 48 53 48 14 23 38 22 17 19 20 18 26 36 34 20 44 36 27 25 16 25 31 35 33 20 12 9 14 6 8 12 16 28 21 22 14 26 20 10 20 7
39 42 42 47 52 43 22 22 25 8 9 9 16 39 42 31 31 23 42 43 24 14 31 42 47 47 42 30 25 25 12 8 5 11 10 6 13 25 12 15 5 22 24 9
44 47 46 45 44 29 22 20 16 8 7 13 24 28 32 37 35 22 40 33 10 28 21 8 12 8 6 13 17 23 20 9 2 3 5 17 22 9 11 5 6 26 24 26
48 47 45 39 35 20 28 24 25 17 11 10 17 34 33 10 15 17 21 42 22 10 1 5 5 7 13 3 4 12 4 10 7 1 5 8 9 26 40 3 8 34 35 30
36 41 43 35 32 20 26 29 28 20 13 39 17 5 13 15 12 8 36 31 13 4 4 7 7 6 10 5 3 6 3 4 6 6 8 12 22 27 38 6 11 41 36 39
27 30 36 37 33 21 22 34 30 20 14 48 56 41 14 17 14 6 30 20 12 7 4 4 6 5 8 9 13 7 13 10 7 5 9 5 25 7 10 13 32 40 47 46
26 28 29 33 32 22 21 36 32 22 33 31 32 45 69 68 37 41 15 19 26 10 5 7 7 6 6 9 5 13 7 3 5 4 8 12 35 7 28 36 39 47 62 70
26 28 26 27 27 23 27 25 28 23 20 47 19 9 20 15 26 22 12 1 11 8 11 7 5 7 6 3 6 9 10 16 4 11 11 27 50 36 51 51 50 59 72 70
33 35 27 24 23 23 29 26 27 34 14 10 17 10 15 16 25 23 33 35 16 13 15 6 4 4 8 5 9 8 6 12 11 9 12 57 9 49 48 55 64 61 62 83
34 35 26 23 20 20 25 32 32 39 18 9 25 63 25 40 33 29 24 20 13 5 7 4 5 9 8 9 6 3 4 3 2 8 26 20 42 61 66 62 67 64 76 86
34 31 23 20 20 19 20 10 25 39 38 9 7 17 24 21 32 42 33 29 18 7 5 10 11 32 2 4 6 9 16 14 15 16 38 50 59 62 50 64 57 72 83 83
35 26 22 20 23 24 22 9 7 2 22 6 10 9 11 13 37 39 31 25 13 10 5 9 13 18 3 0 5 9 21 27 39 25 33 31 36 57 56 56 57 76 86 74
27 25 23 24 21 23 28 34 29 23 14 7 6 8 10 17 19 21 30 17 15 12 9 10 9 4 6 6 10 17 30 41 28 27 40 45 53 60 64 60 65 63 82 83
24 27 28 24 22 18 26 25 21 28 18 7 7 4 4 6 32 15 17 19 7 13 6 6 3 4 6 2 8 22 25 24 40 50 52 44 51 60 66 54 62 56 85 76
38 36 14 9 10 16 17 12 13 21 12 12 8 11 7 10 6 14 14 15 7 6 10 8 6 5 7 7 13 18 26 31 37 41 43 63 64 59 61 55 53 57 82 80
42 17 11 15 15 20 9 8 9 11 8 13 16 32 15 16 8 4 5 4 9 5 6 6 5 3 5 10 15 20 29 33 32 33 43 50 57 62 65 63 63 66 80 79
32 22 21 16 11 10 7 8 9 10 8 14 11 24 34 14 13 2 6 5 5 3 19 4 3 4 14 15 17 22 31 31 31 36 42 48 48 60 66 68 65 69 75 93
34 10 11 10 10 9 11 13 8 7 11 17 20 6 21 11 10 1 1 6 7 27 7 4 5 16 12 13 17 24 26 32 34 40 44 47 51 54 64 67 71 74 74 95
9 14 10 9 10 10 8 10 6 9 13 20 28 9 11 5 6 5 5 7 3 5 3 6 5 9 9 13 23 32 36 37 45 48 52 50 52 56 64 64 74 80 68 90
11 10 9 14 18 7 11 23 19 21 26 27 6 5 5 4 1 3 5 6 1 7 4 4 6 6 9 16 22 27 30 37 46 54 59 54 51 55 62 63 70 74 85 84
9 10 8 13 6 14 20 19 23 23 30 20 21 2 4 4 1 2 3 7 3 3 5 9 3 5 10 15 18 24 26 33 40 52 54 51 60 54 55 56 65 73 80 88
9 11 25 25 13 16 18 19 25 31 35 5 2 10 6 6 3 2 2 1 3 9 13 4 2 5 9 13 20 19 23 31 37 48 48 50 54 60 56 62 68 67 73 92
Wind_Direction_500mb
317 321 331 321 337 338 345 348 305 224 192 204 219 226 237 284 334 329 336 351 331 322 327 314 313 308 303 320 332 318 301 272 314 264 275 290 322 73 70 213 292 260 291 276
318 321 318 317 332 332 339 332 278 299 221 237 265 293 309 314 323 346 318 302 310 308 318 322 311 298 301 301 291 284 215 253 330 329 338 2 24 230 195 158 187 204 263 261
319 315 315 316 320 335 336 320 302 321 224 256 341 347 314 318 322 321 319 351 358 333 316 303 294 303 318 328 334 6 350 267 200 249 254 271 284 282 262 174 151 251 231 271
304 307 317 315 328 331 336 280 289 339 318 328 322 303 295 302 307 313 339 338 328 309 315 315 302 310 328 327 326 338 308 258 303 288 288 286 284 289 288 275 223 234 263 254
299 303 314 315 327 337 329 285 339 330 307 310 323 311 313 316 335 344 322 316 328 331 312 287 306 331 337 269 321 341 319 253 254 260 279 306 298 301 287 282 282 285 253 274
294 294 301 310 322 334 319 288 294 326 290 312 299 306 336 323 337 314 336 325 312 295 318 338 312 298 282 264 268 269 275 272 337 279 303 305 298 278 294 286 283 12 326 278
287 293 300 309 318 327 310 304 323 292 275 273 299 314 317 325 329 313 316 318 312 351 323 313 297 268 253 249 248 223 244 266 245 283 331 256 253 337 18 2 51 29 329 35
284 287 297 307 316 312 306 293 305 260 275 302 290 286 312 326 343 337 309 327 27 344 3 319 303 286 101 237 233 216 198 189 287 181 223 281 289 20 347 5 9 26 351 345
287 288 293 303 312 285 294 290 274 270 290 243 299 311 295 346 335 313 311 333 345 358 284 263 285 285 294 141 122 8 4 118 135 256 242 248 43 359 343 53 255 3 2 4
291 286 290 300 308 273 273 284 283 266 261 275 286 307 306 307 307 268 294 342 316 324 276 308 248 269 343 318 164 201 253 46 193 226 240 280 17 344 315 324 317 330 348 336
297 287 286 291 301 266 264 272 293 265 251 279 280 275 279 285 271 251 306 332 16 300 280 290 322 321 348 323 340 299 178 152 209 204 234 257 19 6 4 315 327 331 330 323
302 289 288 289 290 263 249 260 283 284 252 263 282 268 279 268 265 257 272 295 310 350 341 9 326 329 313 331 288 18 34 28 262 202 252 102 7 23 349 343 331 337 334 325
292 285 283 285 285 250 236 266 272 269 279 297 274 289 290 264 238 271 234 173 3 360 350 300 276 289 6 299 290 14 316 15 42 354 328 356 338 340 335 337 329 317 319 314
286 283 272 274 279 237 227 260 269 256 287 276 289 299 257 261 258 233 228 253 303 323 323 290 258 271 288 277 280 290 27 35 355 286 316 332 258 315 318 319 325 313 322 323
285 284 261 264 264 229 243 244 264 256 254 279 288 292 320 230 223 227 224 229 240 288 311 260 260 265 311 293 272 71 24 28 346 271 303 285 283 304 322 319 318 324 325 325
283 273 243 246 241 228 228 260 255 247 246 288 288 280 280 255 240 221 216 216 213 210 232 269 243 253 254 304 295 86 55 35 335 283 294 295 300 306 313 326 326 333 328 329
270 248 231 226 221 221 201 215 203 6 182 244 283 271 292 223 201 205 208 199 190 199 230 255 256 286 229 198 248 57 11 329 321 324 327 314 310 310 320 322 323 326 335 324
260 222 217 203 215 228 240 244 258 280 191 239 269 274 285 216 201 206 199 168 179 200 229 250 247 144 143 255 257 324 331 330 323 318 316 301 309 315 320 320 320 335 334 334
216 189 185 190 213 220 242 258 248 243 203 241 241 254 286 280 218 208 185 181 186 200 221 242 220 145 223 65 350 329 324 316 307 315 315 329 319 320 325 330 331 333 337 329
187 181 165 192 211 190 164 150 177 192 220 235 245 228 252 311 289 206 200 177 198 201 214 210 198 222 164 79 358 324 322 313 313 322 321 324 325 330 333 330 338 334 339 327
177 163 155 170 149 155 193 185 188 186 237 225 235 220 226 255 244 243 254 224 162 259 157 216 192 176 96 48 354 326 320 320 326 321 316 323 332 333 332 336 342 345 342 338
186 159 137 144 177 201 224 190 189 200 240 201 225 206 194 233 246 215 197 225 261 261 158 233 172 110 72 5 340 331 324 334 339 337 334 332 337 339 341 340 344 348 343 342
141 137 148 167 172 209 221 200 187 214 216 208 204 198 165 227 252 58 274 245 240 126 186 155 87 73 28 2 346 348 349 358 348 342 341 342 341 346 347 347 348 343 340 345
143 158 178 216 187 232 202 228 205 233 292 270 179 216 195 186 163 179 246 250 203 242 213 75 81 75 9 355 356 8 6 355 356 352 348 346 346 349 352 349 352 349 346 346
167 193 216 213 238 208 234 239 243 260 224 259 152 221 201 221 84 210 302 259 277 43 74 92 144 44 341 346 350 357 353 349 349 353 354 355 353 352 354 355 355 350 348 352
181 220 249 256 286 240 239 245 233 255 260 242 173 91 212 154 129 11 278 316 39 69 91 135 82 40 334 339 345 345 346 347 346 348 355 355 355 356 354 2 3 357 358 355
214 234 232 254 285 255 241 251 236 221 251 228 157 192 161 98 76 272 99 163 154 126 121 164 264 316 323 337 333 346 350 344 347 347 359 5 8 8 11 10 8 3 359 3
Wind_Speed_850mb
47 47 45 59 71 82 75 40 8 14 22 3 11 9 11 29 32 38 16 16 14 15 21 19 18 27 20 35 27 25 15 2 5 15 22 21 9 11 8 2 3 5 7 13
44 46 45 55 63 75 78 54 20 17 23 5 7 14 25 35 23 26 28 16 8 13 14 14 13 26 35 40 25 12 1 4 7 15 11 10 4 5 12 12 11 10 14 11
41 48 45 52 60 61 48 21 8 5 22 30 13 15 12 22 31 35 36 15 19 17 18 17 20 23 17 34 32 21 8 3 8 15 18 13 21 26 19 16 6 15 16 29
42 44 42 50 51 51 38 8 12 26 9 13 24 21 18 28 28 36 24 14 22 26 15 20 24 24 22 31 34 18 5 3 11 23 27 32 38 34 29 31 28 26 39 37
38 40 44 50 48 46 26 10 14 30 36 30 25 19 23 31 31 24 26 13 24 23 18 21 24 16 11 10 10 14 10 8 14 27 24 27 35 33 36 39 30 32 27 31
43 42 41 48 53 48 14 23 38 22 17 19 20 18 26 36 34 20 44 36 27 25 16 25 31 35 33 20 12 9 14 6 8 12 16 28 21 22 14 26 20 10 20 7
39 42 42 47 52 43 22 22 25 8 9 9 16 39 42 31 31 23 42 43 24 14 31 42 47 47 42 30 25 25 12 8 5 11 10 6 13 25 12 15 5 22 24 9
44 47 46 45 44 29 22 20 16 8 7 13 24 28 32 37 35 22 40 33 10 28 21 8 12 8 6 13 17 23 20 9 2 3 5 17 22 9 11 5 6 26 24 26
48 47 45 39 35 20 28 24 25 17 11 10 17 34 33 10 15 17 21 42 22 10 1 5 5 7 13 3 4 12 4 10 7 1 5 8 9 26 40 3 8 34 35 30
36 41 43 35 32 20 26 29 28 20 13 39 17 5 13 15 12 8 36 31 13 4 4 7 7 6 10 5 3 6 3 4 6 6 8 12 22 27 38 6 11 41 36 39
27 30 36 37 33 21 22 34 30 20 14 48 56 41 14 17 14 6 30 20 12 7 4 4 6 5 8 9 13 7 13 10 7 5 9 5 25 7 10 13 32 40 47 46
26 28 29 33 32 22 21 36 32 22 33 31 32 45 69 68 37 41 15 19 26 10 5 7 7 6 6 9 5 13 7 3 5 4 8 12 35 7 28 36 39 47 62 70
26 28 26 27 27 23 27 25 28 23 20 47 19 9 20 15 26 22 12 1 11 8 11 7 5 7 6 3 6 9 10 16 4 11 11 27 50 36 51 51 50 59 72 70
33 35 27 24 23 23 29 26 27 34 14 10 17 10 15 16 25 23 33 35 16 13 15 6 4 4 8 5 9 8 6 12 11 9 12 57 9 49 48 55 64 61 62 83
34 35 26 23 20 20 25 32 32 39 18 9 25 63 25 40 33 29 24 20 13 5 7 4 5 9 8 9 6 3 4 3 2 8 26 20 42 61 66 62 67 64 76 86
34 31 23 20 20 19 20 10 25 39 38 9 7 17 24 21 32 42 33 29 18 7 5 10 11 32 2 4 6 9 16 14 15 16 38 50 59 62 50 64 57 72 83 83
35 26 22 20 23 24 22 9 7 2 22 6 10 9 11 13 37 39 31 25 13 10 5 9 13 18 3 0 5 9 21 27 39 25 33 31 36 57 56 56 57 76 86 74
27 25 23 24 21 23 28 34 29 23 14 7 6 8 10 17 19 21 30 17 15 12 9 10 9 4 6 6 10 17 30 41 28 27 40 45 53 60 64 60 65 63 82 83
24 27 28 24 22 18 26 25 21 28 18 7 7 4 4 6 32 15 17 19 7 13 6 6 3 4 6 2 8 22 25 24 40 50 52 44 51 60 66 54 62 56 85 76
38 36 14 9 10 16 17 12 13 21 12 12 8 11 7 10 6 14 14 15 7 6 10 8 6 5 7 7 13 18 26 31 37 41 43 63 64 59 61 55 53 57 82 80
42 17 11 15 15 20 9 8 9 11 8 13 16 32 15 16 8 4 5 4 9 5 6 6 5 3 5 10 15 20 29 33 32 33 43 50 57 62 65 63 63 66 80 79
32 22 21 16 11 10 7 8 9 10 8 14 11 24 34 14 13 2 6 5 5 3 19 4 3 4 14 15 17 22 31 31 31 36 42 48 48 60 66 68 65 69 75 93
34 10 11 10 10 9 11 13 8 7 11 17 20 6 21 11 10 1 1 6 7 27 7 4 5 16 12 13 17 24 26 32 34 40 44 47 51 54 64 67 71 74 74 95
9 14 10 9 10 10 8 10 6 9 13 20 28 9 11 5 6 5 5 7 3 5 3 6 5 9 9 13 23 32 36 37 45 48 52 50 52 56 64 64 74 80 68 90
11 10 9 14 18 7 11 23 19 21 26 27 6 5 5 4 1 3 5 6 1 7 4 4 6 6 9 16 22 27 30 37 46 54 59 54 51 55 62 63 70 74 85 84
9 10 8 13 6 14 20 19 23 23 30 20 21 2 4 4 1 2 3 7 3 3 5 9 3 5 10 15 18 24 26 33 40 52 54 51 60 54 55 56 65 73 80 88
9 11 25 25 13 16 18 19 25 31 35 5 2 10 6 6 3 2 2 1 3 9 13 4 2 5 9 13 20 19 23 31 37 48 48 50 54 60 56 62 68 67 73 92
Wind_Direction_850mb
317 321 331 321 337 338 345 348 305 224 192 204 219 226 237 284 334 329 336 351 331 322 327 314 313 308 303 320 332 318 301 272 314 264 275 290 322 73 70 213 292 260 291 276
318 321 318 317 332 332 339 332 278 299 221 237 265 293 309 314 323 346 318 302 310 308 318 322 311 298 301 301 291 284 215 253 330 329 338 2 24 230 195 158 187 204 263 261
319 315 315 316 320 335 336 320 302 321 224 256 341 347 314 318 322 321 319 351 358 333 316 303 294 303 318 328 334 6 350 267 200 249 254 271 284 282 262 174 151 251 231 271
304 307 317 315 328 331 336 280 289 339 318 328 322 303 295 302 307 313 339 338 328 309 315 315 302 310 328 327 326 338 308 258 303 288 288 286 284 289 288 275 223 234 263 254
299 303 314 315 327 337 329 285 339 330 307 310 323 311 313 316 335 344 322 316 328 331 312 287 306 331 337 269 321 341 319 253 254 260 279 306 298 301 287 282 282 285 253 274
294 294 301 310 322 334 319 288 294 326 290 312 299 306 336 323 337 314 336 325 312 295 318 338 312 298 282 264 268 269 275 272 337 279 303 305 298 278 294 286 283 12 326 278
287 293 300 309 318 327 310 304 323 292 275 273 299 314 317 325 329 313 316 318 312 351 323 313 297 268 253 249 248 223 244 266 245 283 331 256 253 337 18 2 51 29 329 35
284 287 297 307 316 312 306 293 305 260 275 302 290 286 312 326 343 337 309 327 27 344 3 319 303 286 101 237 233 216 198 189 287 181 223 281 289 20 347 5 9 26 351 345
287 288 293 303 312 285 294 290 274 270 290 243 299 311 295 346 335 313 311 333 345 358 284 263 285 285 294 141 122 8 4 118 135 256 242 248 43 359 343 53 255 3 2 4
291 286 290 300 308 273 273 284 283 266 261 275 286 307 306 307 307 268 294 342 316 324 276 308 248 269 343 318 164 201 253 46 193 226 240 280 17 344 315 324 317 330 348 336
297 287 286 291 301 266 264 272 293 265 251 279 280 275 279 285 271 251 306 332 16 300 280 290 322 321 348 323 340 299 178 152 209 204 234 257 19 6 4 315 327 331 330 323
302 289 288 289 290 263 249 260 283 284 252 263 282 268 279 268 265 257 272 295 310 350 341 9 326 329 313 331 288 18 34 28 262 202 252 102 7 23 349 343 331 337 334 325
292 285 283 285 285 250 236 266 272 269 279 297 274 289 290 264 238 271 234 173 3 360 350 300 276 289 6 299 290 14 316 15 42 354 328 356 338 340 335 337 329 317 319 314
286 283 272 274 279 237 227 260 269 256 287 276 289 299 257 261 258 233 228 253 303 323 323 290 258 271 288 277 280 290 27 35 355 286 316 332 258 315 318 319 325 313 322 323
285 284 261 264 264 229 243 244 264 256 254 279 288 292 320 230 223 227 224 229 240 288 311 260 260 265 311 293 272 71 24 28 346 271 303 285 283 304 322 319 318 324 325 325
283 273 243 246 241 228 228 260 255 247 246 288 288 280 280 255 240 221 216 216 213 210 232 269 243 253 254 304 295 86 55 35 335 283 294 295 300 306 313 326 326 333 328 329
270 248 231 226 221 221 201 215 203 6 182 244 283 271 292 223 201 205 208 199 190 199 230 255 256 286 229 198 248 57 11 329 321 324 327 314 310 310 320 322 323 326 335 324
260 222 217 203 215 228 240 244 258 280 191 239 269 274 285 216 201 206 199 168 179 200 229 250 247 144 143 255 257 324 331 330 323 318 316 301 309 315 320 320 320 335 334 334
216 189 185 190 213 220 242 258 248 243 203 241 241 254 286 280 218 208 185 181 186 200 221 242 220 145 223 65 350 329 324 316 307 315 315 329 319 320 325 330 331 333 337 329
187 181 165 192 211 190 164 150 177 192 220 235 245 228 252 311 289 206 200 177 198 201 214 210 198 222 164 79 358 324 322 313 313 322 321 324 325 330 333 330 338 334 339 327
177 163 155 170 149 155 193 185 188 186 237 225 235 220 226 255 244 243 254 224 162 259 157 216 192 176 96 48 354 326 320 320 326 321 316 323 332 333 332 336 342 345 342 338
186 159 137 144 177 201 224 190 189 200 240 201 225 206 194 233 246 215 197 225 261 261 158 233 172 110 72 5 340 331 324 334 339 337 334 332 337 339 341 340 344 348 343 342
141 137 148 167 172 209 221 200 187 214 216 208 204 198 165 227 252 58 274 245 240 126 186 155 87 73 28 2 346 348 349 358 348 342 341 342 341 346 347 347 348 343 340 345
143 158 178 216 187 232 202 228 205 233 292 270 179 216 195 186 163 179 246 250 203 242 213 75 81 75 9 355 356 8 6 355 356 352 348 346 346 349 352 349 352 349 346 346
167 193 216 213 238 208 234 239 243 260 224 259 152 221 201 221 84 210 302 259 277 43 74 92 144 44 341 346 350 357 353 349 349 353 354 355 353 352 354 355 355 350 348 352
181 220 249 256 286 240 239 245 233 255 260 242 173 91 212 154 129 11 278 316 39 69 91 135 82 40 334 339 345 345 346 347 346 348 355 355 355 356 354 2 3 357 358 355
214 234 232 254 285 255 241 251 236 221 251 228 157 192 161 98 76 272 99 163 154 126 121 164 264 316 323 337 333 346 350 344 347 347 359 5 8 8 11 10 8 3 359 3